Powrót do katalogu

COSMOS 1876

AktywnyNawigacjaPO
NORAD 18335·PAYLOAD·🇷🇺 Russia

Wystrzelony Sep 7, 1987 z Plesetsk Cosmodrome

Loading…

Następne Przeloty (najbliższe 24 godziny)

TLE

ŚwieżeSource: Space-Track

Epoka: Sep 14, 2026, 11:58 UTC

1 18335U 87074B   26257.49885609  .00000004  00000-0 -37301-4 0  9990
2 18335  82.5677 265.7606 0003906 278.8750 235.0418 12.62818230798363

Śledź COSMOS 1876 w czasie rzeczywistym z AllMySat

Download on the App Store